TimePST,TemperatureF,Dew PointF,Humidity,Sea Level PressureIn,VisibilityMPH,Wind Direction,Wind SpeedMPH,Gust SpeedMPH,PrecipitationIn,Events,Conditions,WindDirDegrees,DateUTC
12:48 AM,46.9,35.1,63,30.06,10.0,NNW,10.4,-,N/A,,Clear,340,2012-11-21 08:48:00
1:48 AM,46.0,36.0,68,30.06,10.0,North,11.5,19.6,N/A,,Clear,360,2012-11-21 09:48:00
2:48 AM,46.0,35.1,66,30.05,10.0,NNW,20.7,-,N/A,,Clear,340,2012-11-21 10:48:00
3:48 AM,44.1,36.0,73,30.05,10.0,NNW,15.0,-,N/A,,Clear,340,2012-11-21 11:48:00
4:48 AM,44.1,36.0,73,30.06,10.0,North,17.3,-,N/A,,Clear,350,2012-11-21 12:48:00
5:48 AM,45.0,36.0,71,30.08,10.0,NNW,21.9,-,N/A,,Clear,340,2012-11-21 13:48:00
6:48 AM,46.0,36.0,68,30.10,10.0,NNW,18.4,-,N/A,,Clear,330,2012-11-21 14:48:00
8:48 AM,50.0,36.0,59,30.12,10.0,North,13.8,-,N/A,,Clear,350,2012-11-21 16:48:00
9:48 AM,52.0,35.1,53,30.12,10.0,North,20.7,26.5,N/A,,Clear,350,2012-11-21 17:48:00
10:48 AM,54.0,35.1,49,30.11,10.0,North,19.6,25.3,N/A,,Clear,350,2012-11-21 18:48:00
11:48 AM,57.0,32.0,39,30.09,10.0,North,17.3,21.9,N/A,,Clear,350,2012-11-21 19:48:00
12:48 PM,57.9,36.0,44,30.07,10.0,NNW,19.6,26.5,N/A,,Clear,340,2012-11-21 20:48:00
1:48 PM,57.0,35.1,44,30.06,10.0,NNW,21.9,33.4,N/A,,Clear,340,2012-11-21 21:48:00
2:48 PM,55.0,39.0,55,30.07,10.0,North,12.7,25.3,N/A,,Clear,350,2012-11-21 22:48:00
3:48 PM,53.1,39.0,59,30.07,10.0,NNW,11.5,25.3,N/A,,Clear,340,2012-11-21 23:48:00
4:48 PM,50.0,39.0,66,30.07,10.0,North,19.6,29.9,N/A,,Clear,350,2012-11-22 00:48:00
5:48 PM,48.0,39.0,71,30.09,10.0,North,8.1,-,N/A,,Clear,10,2012-11-22 01:48:00
7:48 PM,48.0,39.9,74,30.09,10.0,NNW,27.6,35.7,N/A,,Clear,340,2012-11-22 03:48:00
8:48 PM,-9999,-9999,N/A,-9999,-9999.0,North,-9999.0,-,N/A,,Unknown,0,2012-11-22 04:48:00
9:08 PM,46.4,39.2,76,30.17,10.0,North,6.9,18.4,N/A,,Mostly Cloudy,10,2012-11-22 05:08:00
9:24 PM,46.4,39.2,76,30.17,10.0,North,20.7,26.5,N/A,,Scattered Clouds,350,2012-11-22 05:24:00
9:48 PM,46.0,39.9,79,30.10,10.0,North,12.7,26.5,N/A,,Clear,360,2012-11-22 05:48:00
10:48 PM,46.0,41.0,83,30.06,10.0,NNW,33.4,43.7,N/A,,Clear,330,2012-11-22 06:48:00
11:48 PM,45.0,41.0,86,30.06,10.0,NNW,28.8,39.1,N/A,,Clear,340,2012-11-22 07:48:00